Regional Weather Roundup
Issued by NWS

Home | Current Version | Previous Version | Text Only | Print | Product List | Glossary Off
Versions: 1 2 3 4 5 6 7 8 9 10 11 12 13 14 15 16 17 18 19 20 21 22 23 24 25 26 27 28 29 30 31 32 33 34 35 36 37 38 39 40 41 42 43 44 45 46 47 48 49 50

000
ASUS43 KMKX 200811
RWRWI

WISCONSIN REGIONAL WEATHER ROUNDUP
NATIONAL WEATHER SERVICE MILWAUKEE/SULLIVAN WI
300 AM CDT WED SEP 20 2017

NOTE: "FAIR" INDICATES FEW OR NO CLOUDS BELOW 12,000 FEET WITH NO
SIGNIFICANT WEATHER AND/OR OBSTRUCTIONS TO VISIBILITY.

WIZ001-002-006>008-014>016-023>028-200900-
NORTHWEST WISCONSIN

CITY           SKY/WX    TMP DP  RH WIND       PRES   REMARKS
SUPERIOR ARPT  CLOUDY    67  61  80 S13G20    29.62F
ASHLAND        CLOUDY    65  58  78 S10G17    29.73F
HAYWARD        CLOUDY    67  60  78 SE17G38   29.73F
SIREN          CLOUDY    69  60  73 S25G32    29.61F
CUMBERLAND     CLOUDY    63  59  88 SE15G21   29.69F
RICE LAKE      CLOUDY    66  61  84 SE20G26   29.72F
CHETEK         CLOUDY    66  63  88 SE16G24   29.73F
LADYSMITH      CLOUDY    65  60  86 SE15      29.80F
EAU CLAIRE     CLOUDY    66  62  87 SE12      29.73F
MENOMONIE      CLOUDY    66  62  87 SE13G18   29.71F
NEW RICHMOND   CLOUDY    70  61  73 SE17G24   29.62F
OSCEOLA        CLOUDY    71  62  73 SE21G32   29.58F
$$

WIZ003>005-009-010-017-018-200900-
NORTH CENTRAL WISCONSIN

CITY           SKY/WX    TMP DP  RH WIND       PRES   REMARKS
MANITOWISH WTR CLOUDY    57  57 100 SE9       29.86F
ARBOR VITAE    CLOUDY    59  56  89 SE9G17    29.88F
WOODRUFF       CLOUDY    59  56  89 SE9G17    29.88F
RHINELANDER    CLOUDY    57  57 100 SE8       29.91S
EAGLE RIVER    CLOUDY    57  53  84 S9        29.91R
LAND O LAKES   CLOUDY    57  54  88 S8        29.92R
PHILLIPS       CLOUDY    60  59  97 SE9       29.82F
TOMAHAWK         N/A     58  56  91 SE3       29.89F
MEDFORD        CLOUDY    60  58  91 SE10G17   29.86F
MERRILL          N/A     61  59  94 SE8       29.89F
$$

WIZ029-030-035-036-043>047-200900-
CENTRAL WISCONSIN

CITY           SKY/WX    TMP DP  RH WIND       PRES   REMARKS
WAUSAU         MOCLDY    60  58  92 SE8       29.89S
MOSINEE        PTCLDY    59  59 100 SE9       29.90F FOG
MARSHFIELD     CLEAR     60  57  89 SE8       29.86F FOG
STEVENS POINT  CLEAR     58  58 100 SE5       29.91S
WAUPACA          N/A     59  58  97 CALM      29.91F FOG
WAUTOMA        FOG       57  57 100 CALM      29.90F VSB 3/4
WISC RAPIDS    PTCLDY    61  59  93 SE10      29.88F
CAMP DOUGLAS   PTCLDY    63  62  97 E9        29.85S
$$

WIZ011>013-019>022-031-037>040-048>050-200900-
NORTHEAST WISCONSIN

CITY           SKY/WX    TMP DP  RH WIND       PRES   REMARKS
ANTIGO         CLOUDY    56  55  94 S7        29.94R
SHAWANO        CLEAR     56  54  92 CALM      29.92S FOG
OCONTO         CLOUDY    52  51  99 CALM      29.92F VSB 1/2
STURGEON BAY   CLEAR     62  61  96 SE8       29.94R
GREEN BAY      CLEAR     54  54 100 CALM      29.93S
MANITOWOC      PTCLDY    64  62  93 SE5       29.94R
APPLETON       CLEAR     59  59 100 SE6       29.91S FOG
CLINTONVILLE   MOCLDY    54  52  94 E3        29.91F FOG
OSHKOSH        CLOUDY    61  60  97 S6        29.91S FOG
$$

WIZ032>034-041-042-053>061-200900-
SOUTHWEST WISCONSIN

CITY           SKY/WX    TMP DP  RH WIND       PRES   REMARKS
LA CROSSE      MOCLDY    71  64  78 SE17      29.77F
SPARTA         MOCLDY    66  62  85 SE9       29.83F
VIROQUA        PTCLDY    64  64 100 SE9       29.83S
BOSCOBEL       CLEAR     68  62  81 CALM      29.84R
PRAIRIE DU CHI CLOUDY    67  62  83 E8        29.81F
PLATTEVILLE    CLEAR     65  65 100 SE9       29.86R
$$

WIZ056-057-062-063-064-067-068-200900-
SOUTH CENTRAL WISCONSIN

CITY           SKY/WX    TMP DP  RH WIND       PRES   REMARKS
REEDSBURG      MOCLDY    63  63  99 SE3       29.87S
BARABOO/DELLS  PTCLDY    63  60  90 SE7       29.87F
LONE ROCK      MOCLDY    66  63  90 SE10      29.85S
MINERAL POINT  CLEAR     64  64 100 SE10      29.88R FOG
MADISON        CLEAR     62  60  93 SE7       29.89R
MIDDLETON      CLEAR     63  63 100 SE6       29.89F
WATERTOWN      CLOUDY    61  61 100 SE6       29.91R FOG
MONROE         PTCLDY    61  61 100 SE7       29.89R FOG
JANESVILLE     CLEAR     63  63 100 E5        29.89S FOG
$$

WIZ051-052-058>065-066-070>072-200900-
SOUTHEAST WISCONSIN

CITY           SKY/WX    TMP DP  RH WIND       PRES   REMARKS
MILWAUKEE      MOCLDY    60  59  96 CALM      29.92R FOG
WAUKESHA       CLOUDY    61  61 100 CALM      29.93S FOG
MILWAUKEE/TIMM CLOUDY    59  55  88 CALM      29.93R FOG
RACINE         FOG       59  59 100 CALM      29.93S VSB 1/2
BURLINGTON     FOG       62  62 100 CALM      29.91S VSB 1/2
KENOSHA        FOG       57  56  96 CALM      29.92R VSB 1/4
FOND DU LAC    PTCLDY    61  58  90 S6        29.92S
SHEBOYGAN      FOG       53  53 100 CALM      29.94R VSB 1/4
WEST BEND      FOG       59  59 100 CALM      29.93S VSB<1/4
JUNEAU         CLOUDY    60  60  98 SE5       29.92S FOG
$$

LSZ147-162-200900-
LAKE SUPERIOR

STATION/POSITION TIME  TEMP    WIND        PRES    WAVE
                       AIR SEA DIR/SP/G            HT/PER
                 (UTC) (F)     (DEG/KT/KT) (MB)    (FT/S)
W MID LAKE BUOY  0750   59 55  150/ 17/ 21 1008.5F   3/ 4
DEVILS ISLAND    0800   63     130/ 15/ 19 1006.6F
PORT WING        0630   67     130/  6/ 16 1006.4F
SAXON HARBOR     0730   65     190/  7/ 13 1007.1F
$$

LMZ867-665-643>646-200900-
LAKE MICHIGAN

STATION/POSITION TIME  TEMP    WIND        PRES    WAVE
                       AIR SEA DIR/SP/G            HT/PER
                 (UTC) (F)     (DEG/KT/KT) (MB)    (FT/S)
S GREEN BAY BUOY 0800   65 66  170/ 10/ 12 1013.3
N MID LAKE BUOY  0750   65 65  150/ 10/ 10 1014.7R   2/ 4
NORTHPORT PIER   0740   65     160/  3/  5 1013.9R
KEWAUNEE LAKESHO 0748   64     200/  5/  6 1013.0R
SHEBOYGAN LAKESH 0800   66     190/  7/  8 1013.1R
PORT WASHINGTON  0740   66     220/  2/  4 1014.2R
ATWATER BUOY     0709   68 68  180/  6/  8 1013.1F
MILWAUKEE LAKESH 0750   65     240/  2/  3   N/A
S MID LAKE BUOY  0650   68 69  100/  8/ 10 1012.9F   1
KENOSHA   LAKESH 0800   67     190/  3/  4 1012.9
$$

TC  - TEMPERATURE IN CELSIUS
VSB - VISIBILITY IN STATUTE MILES
WCI - WIND CHILL INDEX
HX  - HEAT INDEX





USA.gov is the U.S. government's official web portal to all federal, state and local government web resources and services.